SL-12 R/B(AUX MOTOR)

基本信息
目录编号:
33384
目录名称:
SL-12 R/B(AUX MOTOR)
国际标识:
2008-046G
轨道中心:
EARTH
物体状态:
在轨
发射日期:
2008-09-25 UTC
国别:
俄罗斯(独联体) (CIS)
轨道信息
数据来源: 国际轨道数据
星历时间: 2026-07-13T04:08:34+0800
半长轴: 16140.067km
偏心率: 0.5653565
轨道倾角: 65.328°
近地点辐角: 234.562°
升交点赤经: 28.216°
平近点角: 58.941°
近地点: 637.038km
远地点: 18886.822km
周期: 340.109分钟
每日圈数: 4.233941
详细信息
发射场:
TTMTR
轨道高度:
LEO
数据来源:
AOE Integration Group
参考系:
TEME
时间系统:
UTC
历元类型:
SGP4
2D轨道图
3D轨道图
轨道高度分析图
轨道倾角分析图
轨道综合分析图
查看轨道综合分析图